Location: Agadir Irigdalene
(31.2522°N, 8.7797°W)
Time: 04:54:58
(UTC+00:00)

Cosmos 2084 - Pass Details

Date: 01 December 2020
Orbit: 557 x 624 km, 62.8° (Epoch: 25 January)

Event Time Altitude Azimuth Distance (km) Brightness Sun altitude
Rises 19:08:16 0° 217° (SW) 2,743 7.7 -20.2°
Reaches altitude 10° 19:10:29 10° 220° (SW) 1,858 6.8 -20.6°
Maximum altitude 19:14:38 62° 302° (WNW) 651 3.8 -21.5°
Enters shadow 19:16:03 38° 5° (N) 887 4.1 -21.8°
